[TLELIST] Archives

 

Current TLEs

December 6th 2007 PDT

HST 1 20580U 90037B 07330.85776693 .00000412 00000-0 19096-4 0 142 2 20580 028.4682 209.3145 0003443 026.7935 333.2830 15.00307838764416 ISS (ZARYA) 1 25544U 98067A 07331.53224545 .00020960 00000-0 13130-3 0 4177 2 25544 051.6414 341.7286 0001119 199.0548 299.5177 15.76767329516546 CXO 1 25867U 99040B 07331.58333333 .00000359 00000-0 10000-3 0 1392 2 25867 062.7678 085.6071 6474146 281.5199 355.2570 00.37797158 2860 ____________________________________________________________________ These 2-Line ...Continue Reading

Current TLEs

December 5th 2007 PDT

HST 1 20580U 90037B 07330.85776693 .00000412 00000-0 19096-4 0 142 2 20580 028.4682 209.3145 0003443 026.7935 333.2830 15.00307838764416 ISS (ZARYA) 1 25544U 98067A 07331.53224545 .00020960 00000-0 13130-3 0 4177 2 25544 051.6414 341.7286 0001119 199.0548 299.5177 15.76767329516546 CXO 1 25867U 99040B 07331.58333333 .00000359 00000-0 10000-3 0 1392 2 25867 062.7678 085.6071 6474146 281.5199 355.2570 00.37797158 2860 ____________________________________________________________________ These 2-Line ...Continue Reading

Current TLEs

December 4th 2007 PDT

HST 1 20580U 90037B 07330.85776693 .00000412 00000-0 19096-4 0 142 2 20580 028.4682 209.3145 0003443 026.7935 333.2830 15.00307838764416 ISS (ZARYA) 1 25544U 98067A 07331.53224545 .00020960 00000-0 13130-3 0 4177 2 25544 051.6414 341.7286 0001119 199.0548 299.5177 15.76767329516546 CXO 1 25867U 99040B 07331.58333333 .00000359 00000-0 10000-3 0 1392 2 25867 062.7678 085.6071 6474146 281.5199 355.2570 00.37797158 2860 ____________________________________________________________________ These 2-Line ...Continue Reading

Current TLEs

December 3rd 2007 PDT

HST 1 20580U 90037B 07330.85776693 .00000412 00000-0 19096-4 0 142 2 20580 028.4682 209.3145 0003443 026.7935 333.2830 15.00307838764416 ISS (ZARYA) 1 25544U 98067A 07331.53224545 .00020960 00000-0 13130-3 0 4177 2 25544 051.6414 341.7286 0001119 199.0548 299.5177 15.76767329516546 CXO 1 25867U 99040B 07331.58333333 .00000359 00000-0 10000-3 0 1392 2 25867 062.7678 085.6071 6474146 281.5199 355.2570 00.37797158 2860 ____________________________________________________________________ These 2-Line ...Continue Reading

Current TLEs

December 2nd 2007 PDT

HST 1 20580U 90037B 07330.85776693 .00000412 00000-0 19096-4 0 142 2 20580 028.4682 209.3145 0003443 026.7935 333.2830 15.00307838764416 ISS (ZARYA) 1 25544U 98067A 07331.53224545 .00020960 00000-0 13130-3 0 4177 2 25544 051.6414 341.7286 0001119 199.0548 299.5177 15.76767329516546 CXO 1 25867U 99040B 07331.58333333 .00000359 00000-0 10000-3 0 1392 2 25867 062.7678 085.6071 6474146 281.5199 355.2570 00.37797158 2860 ____________________________________________________________________ These 2-Line ...Continue Reading

Current TLEs

December 1st 2007 PDT

HST 1 20580U 90037B 07330.85776693 .00000412 00000-0 19096-4 0 142 2 20580 028.4682 209.3145 0003443 026.7935 333.2830 15.00307838764416 ISS (ZARYA) 1 25544U 98067A 07331.53224545 .00020960 00000-0 13130-3 0 4177 2 25544 051.6414 341.7286 0001119 199.0548 299.5177 15.76767329516546 CXO 1 25867U 99040B 07331.58333333 .00000359 00000-0 10000-3 0 1392 2 25867 062.7678 085.6071 6474146 281.5199 355.2570 00.37797158 2860 ____________________________________________________________________ These 2-Line ...Continue Reading

Current TLEs

November 30th 2007 PDT

HST 1 20580U 90037B 07330.85776693 .00000412 00000-0 19096-4 0 142 2 20580 028.4682 209.3145 0003443 026.7935 333.2830 15.00307838764416 ISS (ZARYA) 1 25544U 98067A 07331.53224545 .00020960 00000-0 13130-3 0 4177 2 25544 051.6414 341.7286 0001119 199.0548 299.5177 15.76767329516546 CXO 1 25867U 99040B 07331.58333333 .00000359 00000-0 10000-3 0 1392 2 25867 062.7678 085.6071 6474146 281.5199 355.2570 00.37797158 2860 ____________________________________________________________________ These 2-Line ...Continue Reading

Current TLEs

November 29th 2007 PDT

HST 1 20580U 90037B 07330.85776693 .00000412 00000-0 19096-4 0 142 2 20580 028.4682 209.3145 0003443 026.7935 333.2830 15.00307838764416 ISS (ZARYA) 1 25544U 98067A 07331.53224545 .00020960 00000-0 13130-3 0 4177 2 25544 051.6414 341.7286 0001119 199.0548 299.5177 15.76767329516546 CXO 1 25867U 99040B 07331.58333333 .00000359 00000-0 10000-3 0 1392 2 25867 062.7678 085.6071 6474146 281.5199 355.2570 00.37797158 2860 ____________________________________________________________________ These 2-Line ...Continue Reading

Current TLEs

November 28th 2007 PDT

HST 1 20580U 90037B 07330.85776693 .00000412 00000-0 19096-4 0 142 2 20580 028.4682 209.3145 0003443 026.7935 333.2830 15.00307838764416 ISS (ZARYA) 1 25544U 98067A 07331.40572756 .00021203 00000-0 13280-3 0 4169 2 25544 051.6419 342.3800 0001213 190.6460 309.2852 15.76762893516523 CXO 1 25867U 99040B 07331.58333333 .00000359 00000-0 10000-3 0 1392 2 25867 062.7678 085.6071 6474146 281.5199 355.2570 00.37797158 2860 ____________________________________________________________________ These 2-Line ...Continue Reading

Current TLEs

November 27th 2007 PDT

HST 1 20580U 90037B 07329.12818660 .00000416 00000-0 19466-4 0 135 2 20580 028.4683 220.5911 0003423 008.0191 352.0452 15.00307026764157 ISS (ZARYA) 1 25544U 98067A 07330.39121380 .00021862 00000-0 13704-3 0 4105 2 25544 051.6416 347.6118 0001149 189.4365 307.9569 15.76721363516367 CXO 1 25867U 99040B 07328.66666667 .00000424 00000-0 10000-3 0 1388 2 25867 062.7529 085.6697 6470305 281.6091 318.1111 00.37798416 2850 ____________________________________________________________________ These 2-Line ...Continue Reading
  • This mailing list is a public mailing list - anyone may join or leave, at any time.
  • This mailing list is announce-only.

International Space Station (ISS) / Hubble Space Telescope (HST) / Chandra X-Ray Observatory Orbital Data via EMAIL

Privacy Policy:

Private list